This demonstration page uses our WeatherBlox Daily Observations layout. Learn more.

Left ArrowRight Arrow

Hourly Observations for September 7, 2018

Temp ( °F °C ) Dew Point ( °F °C ) Humidity (%) Winds ( mph kmh ) Pressure ( in mb ) Visibility ( mi km ) Precip ( " mm )
12:57 am 00:57 Cloudy 66 18.9 65 18.3 96 96 Calm 30.22 1023 7 11 0.00 0.00
1:17 am 01:17 Cloudy 66 19 64 18 94 94 Calm 30.21 1023 8 13 0.00 0.00
1:57 am 01:57 Cloudy 66 18.9 64 17.8 93 93 ENE 7 11 30.22 1024 10 16 0.00 0.00
2:31 am 02:31 Cloudy 64 18 63 17 94 94 E 7 11 30.24 1024 10 16 0.00 0.00
2:57 am 02:57 Cloudy 65 18.3 63 17.2 93 93 NE 5 7 30.21 1023 10 16 0.00 0.00
3:57 am 03:57 Cloudy 65 18.3 63 17.2 93 93 NE 7 11 30.21 1023 10 16 0.00 0.00
4:35 am 04:35 Cloudy 64 18 63 17 94 94 NE 7 11 30.18 1022 10 16 0.00 0.00
4:43 am 04:43 Cloudy 64 18 63 17 94 94 NE 6 9 30.18 1022 10 16 0.00 0.00
4:57 am 04:57 Cloudy 64 17.8 63 17.2 96 96 NE 6 9 30.20 1023 10 16 0.00 0.00
5:51 am 05:51 Cloudy 64 18 63 17 94 94 NE 6 9 30.18 1022 10 16 0.00 0.00
5:57 am 05:57 Cloudy 64 17.8 62 16.7 93 93 NE 6 9 30.19 1022 10 16 0.00 0.00
6:47 am 06:47 Cloudy 63 17 63 17 100 100 ENE 6 9 30.21 1023 10 16 0.00 0.00
6:57 am 06:57 Cloudy 63 17.2 62 16.7 97 97 ENE 6 9 30.20 1023 10 16 0.00 0.00
7:20 am 07:20 Cloudy 63 17 63 17 100 100 NE 8 13 30.21 1023 10 16 0.00 0.00
7:57 am 07:57 Cloudy 63 17.2 62 16.7 97 97 NE 8 13 30.20 1023 10 16 0.00 0.00
8:57 am 08:57 Cloudy 63 17.2 62 16.7 97 97 NE 8 13 30.21 1023 9 14 0.00 0.00
9:45 am 09:45 Cloudy with Mist and Fog 64 18 63 17 94 94 NE 7 11 30.18 1022 6 10 0.00 0.00
9:57 am 09:57 Cloudy 64 17.8 63 17.2 96 96 NE 9 15 30.22 1023 7 11 0.02 0.51
10:17 am 10:17 Cloudy with Mist and Fog 64 18 63 17 94 94 NE 12 19 30.18 1022 4 6 0.00 0.00
10:57 am 10:57 Cloudy 64 17.8 63 17.2 96 96 NE 13 20 30.22 1023 10 16 0.00 0.00
11:12 am 11:12 Cloudy 64 18 63 17 94 94 NNE 9 15 30.18 1022 10 16 0.00 0.00
11:47 am 11:47 Cloudy 66 19 63 17 88 88 NE 10 17 30.18 1022 10 16 0.00 0.00
11:57 am 11:57 Cloudy 67 19.4 63 17.2 87 87 ENE 12 19 30.22 1023 10 16 0.00 0.00
12:20 pm 12:20 Mostly Cloudy 70 21 63 17 78 78 NE 12 19 30.18 1022 10 16 0.00 0.00
12:41 pm 12:41 Partly Cloudy 72 22 59 15 65 65 E 14 22 30.15 1021 10 16 0.00 0.00
12:57 pm 12:57 Mostly Cloudy 73 22.8 61 16.1 66 66 NE 14 22 30.19 1023 10 16 0.00 0.00
1:23 pm 13:23 Mostly Sunny 72 22 59 15 65 65 NNE 15 24 30.15 1021 10 16 0.00 0.00
1:57 pm 13:57 Sunny 74 23.3 59 15 60 60 E 13 20 30.18 1022 10 16 0.00 0.00
2:57 pm 14:57 Mostly Sunny 74 23.3 58 14.4 57 57 ENE 12 19 30.16 1022 10 16 0.00 0.00
3:57 pm 15:57 Mostly Sunny 75 23.9 60 15.6 60 60 NE 14 22 30.15 1021 10 16 0.00 0.00
4:57 pm 16:57 Cloudy 72 22.2 61 16.1 68 68 E 16 26 30.15 1021 10 16 0.00 0.00
5:38 pm 17:38 Cloudy 70 21 63 17 78 78 ENE 15 24 30.15 1021 10 16 0.00 0.00
5:57 pm 17:57 Cloudy 69 20.6 62 16.7 78 78 E 14 22 30.16 1021 10 16 0.00 0.00
6:57 pm 18:57 Cloudy 67 19.4 62 16.7 84 84 E 14 22 30.17 1022 10 16 0.00 0.00
7:57 pm 19:57 Cloudy 65 18.3 62 16.7 90 90 ENE 8 13 30.18 1022 10 16 0.00 0.00
8:57 pm 20:57 Cloudy 64 17.8 61 16.1 90 90 ENE 8 13 30.19 1022 10 16 0.00 0.00
9:11 pm 21:11 Cloudy 64 18 63 17 94 94 ENE 7 11 30.18 1022 10 16 0.00 0.00
9:57 pm 21:57 Cloudy with Mist and Fog 63 17.2 62 16.7 97 97 NE 9 15 30.20 1023 5 8 0.00 0.00
10:43 pm 22:43 Cloudy with Mist and Fog 63 17 61 16 94 94 NE 9 15 30.21 1023 3 4 0.00 0.00
10:57 pm 22:57 Cloudy with Mist and Fog 62 16.7 61 16.1 96 96 NE 10 17 30.21 1023 3 5 0.00 0.00
11:17 pm 23:17 Cloudy with Mist and Fog 61 16 61 16 100 100 ENE 12 19 30.21 1023 3 4 0.00 0.00
11:41 pm 23:41 Cloudy with Mist and Fog 61 16 61 16 100 100 ENE 10 17 30.21 1023 5 8 0.00 0.00
11:55 pm 23:55 Cloudy with Mist and Fog 61 16 61 16 100 100 ENE 12 19 30.21 1023 4 6 0.00 0.00
11:57 pm 23:57 Cloudy with Mist and Fog 61 16.1 60 15.6 97 97 ENE 13 20 30.20 1023 4 6 0.00 0.00

Powered by AerisWeather